TimeICT,TemperatureF,Dew PointF,Humidity,Sea Level PressureIn,VisibilityMPH,Wind Direction,Wind SpeedMPH,Gust SpeedMPH,PrecipitationIn,Events,Conditions,WindDirDegrees,DateUTC
12:00 AM,78.8,71.6,78,29.92,5.6,Variable,2.3,-,N/A,,Partly Cloudy,0,2013-03-15 17:00:00
12:30 AM,78.8,71.6,78,29.92,5.6,SW,2.3,-,N/A,,Partly Cloudy,220,2013-03-15 17:30:00
1:00 AM,78.8,71.6,78,29.89,5.6,Variable,2.3,-,N/A,,Partly Cloudy,0,2013-03-15 18:00:00
7:00 AM,,,,,,Calm,Calm,,,,,,2013-03-16 00:00:00
7:00 AM,75.2,71.6,89,29.95,5.0,SE,5.8,-,N/A,,Scattered Clouds,140,2013-03-16 00:00:00
7:30 AM,77.0,71.6,83,29.98,5.6,SE,5.8,-,N/A,,Scattered Clouds,130,2013-03-16 00:30:00
8:00 AM,78.8,71.6,78,29.98,6.2,ENE,3.5,-,N/A,,Scattered Clouds,60,2013-03-16 01:00:00
8:30 AM,80.6,71.6,74,29.98,6.2,East,5.8,-,N/A,,Scattered Clouds,90,2013-03-16 01:30:00
9:00 AM,82.4,71.6,70,29.98,6.2,ESE,5.8,-,N/A,,Scattered Clouds,110,2013-03-16 02:00:00
9:30 AM,84.2,71.6,66,29.98,6.2,Variable,3.5,-,N/A,,Mostly Cloudy,0,2013-03-16 02:30:00
10:00 AM,84.2,71.6,66,29.98,6.2,East,5.8,-,N/A,,Mostly Cloudy,100,2013-03-16 03:00:00
10:30 AM,84.2,71.6,66,29.98,6.2,East,8.1,-,N/A,,Mostly Cloudy,80,2013-03-16 03:30:00
11:30 AM,87.8,71.6,58,29.95,6.2,ESE,4.6,-,N/A,,Scattered Clouds,110,2013-03-16 04:30:00
12:00 PM,87.8,71.6,58,29.95,6.2,SSW,4.6,-,N/A,,Scattered Clouds,200,2013-03-16 05:00:00
12:30 PM,87.8,71.6,58,29.92,6.2,SW,9.2,-,N/A,,Mostly Cloudy,220,2013-03-16 05:30:00
1:00 PM,87.8,73.4,62,29.92,6.2,South,11.5,-,N/A,,Scattered Clouds,170,2013-03-16 06:00:00
1:30 PM,87.8,71.6,58,29.89,6.2,SE,4.6,-,N/A,,Scattered Clouds,140,2013-03-16 06:30:00
2:00 PM,91.4,71.6,52,29.86,6.2,SE,4.6,-,N/A,,Scattered Clouds,140,2013-03-16 07:00:00
2:30 PM,91.4,71.6,52,29.86,6.2,East,4.6,-,N/A,,Scattered Clouds,100,2013-03-16 07:30:00
3:00 PM,91.4,71.6,52,29.83,6.2,ESE,9.2,-,N/A,,Scattered Clouds,120,2013-03-16 08:00:00
3:30 PM,91.4,71.6,52,29.83,6.2,SSE,8.1,-,N/A,,Scattered Clouds,150,2013-03-16 08:30:00
4:00 PM,91.4,71.6,52,29.83,6.2,SSW,6.9,-,N/A,,Partly Cloudy,200,2013-03-16 09:00:00
4:30 PM,89.6,71.6,55,29.83,6.2,South,9.2,-,N/A,,Partly Cloudy,170,2013-03-16 09:30:00
5:00 PM,89.6,71.6,55,29.83,6.2,SSE,5.8,-,N/A,,Partly Cloudy,150,2013-03-16 10:00:00
5:30 PM,87.8,71.6,58,29.83,6.2,SSW,11.5,-,N/A,,Partly Cloudy,200,2013-03-16 10:30:00
6:00 PM,86.0,73.4,66,29.83,6.2,South,6.9,-,N/A,,Partly Cloudy,180,2013-03-16 11:00:00
6:30 PM,84.2,73.4,70,29.86,6.2,South,6.9,-,N/A,,Partly Cloudy,180,2013-03-16 11:30:00
7:00 PM,84.2,73.4,70,29.86,5.6,South,4.6,-,N/A,,Unknown,170,2013-03-16 12:00:00
7:30 PM,82.4,73.4,74,29.86,5.6,SSE,4.6,-,N/A,,Unknown,160,2013-03-16 12:30:00
8:00 PM,82.4,73.4,74,29.86,5.6,SSE,3.5,-,N/A,,Unknown,150,2013-03-16 13:00:00
8:30 PM,82.4,73.4,74,29.89,5.6,Calm,Calm,-,N/A,,Unknown,0,2013-03-16 13:30:00
9:00 PM,82.4,73.4,74,29.89,5.6,WSW,3.5,-,N/A,,Unknown,250,2013-03-16 14:00:00
9:30 PM,82.4,73.4,74,29.89,5.6,SSW,3.5,-,N/A,,Unknown,210,2013-03-16 14:30:00
10:00 PM,82.4,73.4,74,29.89,5.6,SSE,2.3,-,N/A,,Unknown,150,2013-03-16 15:00:00
10:30 PM,82.4,73.4,74,29.92,5.6,SSE,1.2,-,N/A,,Unknown,160,2013-03-16 15:30:00
11:30 PM,80.6,73.4,79,29.89,5.6,Calm,Calm,-,N/A,,Unknown,0,2013-03-16 16:30:00